When you browse on this site, cookies collect data to enhance your experience and personalize the content and advertising you see.
Visit our Privacy Policy to learn more. By continuing to use the site, you agree to this use of cookies and data.
  • In Hungary
  • List of Countries
  • For 7 days
  • Water Temperature
  • Weather Map
  • News
  • Weather Widgets
  • user-avatar
    Login

    Hourly Weather Riedstadt

    Today, 9 December, Monday

    Time Temperature Precipitation Wind Pressure Humidity
    00:00 +7°C° 0 mm 5 mps 745 mmHg 76%
    01:00 +7°C° 0 mm 5 mps 745 mmHg 77%
    02:00 +7°C° 0.2 mm 5 mps 744 mmHg 77%
    03:00 +7°C° 0.2 mm 5 mps 744 mmHg 78%
    04:00 +6°C° 0.2 mm 5 mps 744 mmHg 78%
    05:00 +6°C° 0.2 mm 5 mps 743 mmHg 77%
    06:00 +6°C° 0.2 mm 5 mps 743 mmHg 76%
    07:00 +6°C° 0.2 mm 5 mps 743 mmHg 75%
    08:00 +5°C° 0 mm 6 mps 743 mmHg 76%
    09:00 +5°C° 0 mm 6 mps 742 mmHg 77%
    10:00 +5°C° 0 mm 6 mps 742 mmHg 77%
    11:00 +5°C° 0.1 mm 6 mps 742 mmHg 78%
    12:00 +6°C° 0.1 mm 5 mps 742 mmHg 80%
    13:00 +6°C° 0.1 mm 5 mps 742 mmHg 81%
    14:00 +6°C° 1 mm 4 mps 743 mmHg 82%
    15:00 +7°C° 1 mm 3 mps 743 mmHg 82%
    16:00 +6°C° 1 mm 2 mps 744 mmHg 83%
    17:00 +5°C° 0 mm 3 mps 745 mmHg 83%
    18:00 +5°C° 0 mm 3 mps 746 mmHg 83%
    19:00 +5°C° 0 mm 3 mps 748 mmHg 83%
    20:00 +5°C° 0.3 mm 3 mps 749 mmHg 80%
    21:00 +5°C° 0.3 mm 4 mps 751 mmHg 78%
    22:00 +5°C° 0.3 mm 4 mps 753 mmHg 75%
    23:00 +4°C° 0 mm 4 mps 754 mmHg 75%

    Tomorrow, 10 December, Tuesday

    Time Temperature Precipitation Wind Pressure Humidity
    00:00 +3°C° 0 mm 4 mps 755 mmHg 75%
    01:00 +3°C° 0 mm 3 mps 756 mmHg 75%
    02:00 +2°C° 0 mm 3 mps 757 mmHg 75%
    03:00 +2°C° 0 mm 3 mps 758 mmHg 76%
    04:00 +2°C° 0 mm 3 mps 759 mmHg 77%
    05:00 +1°C° 0 mm 3 mps 760 mmHg 78%
    06:00 +1°C° 0 mm 3 mps 760 mmHg 78%
    07:00 +2°C° 0 mm 2 mps 761 mmHg 79%
    08:00 +2°C° 0 mm 2 mps 762 mmHg 78%
    09:00 +2°C° 0 mm 2 mps 762 mmHg 77%
    10:00 +3°C° 0 mm 2 mps 762 mmHg 76%
    11:00 +4°C° 0 mm 2 mps 762 mmHg 72%
    12:00 +4°C° 0 mm 2 mps 762 mmHg 69%
    13:00 +5°C° 0 mm 2 mps 762 mmHg 65%
    14:00 +5°C° 0 mm 2 mps 761 mmHg 67%
    15:00 +4°C° 0 mm 2 mps 761 mmHg 70%
    16:00 +4°C° 0 mm 2 mps 760 mmHg 72%
    17:00 +3°C° 0 mm 2 mps 760 mmHg 75%
    18:00 +3°C° 0 mm 2 mps 760 mmHg 78%
    19:00 +2°C° 0 mm 2 mps 759 mmHg 81%
    20:00 +2°C° 0 mm 2 mps 759 mmHg 81%
    21:00 +2°C° 0 mm 2 mps 758 mmHg 81%
    22:00 +2°C° 0 mm 2 mps 758 mmHg 81%
    23:00 +1°C° 0 mm 2 mps 757 mmHg 80%

    Day after tomorrow, 11 December, Wednesday

    Time Temperature Precipitation Wind Pressure Humidity
    00:00 +1°C° 0 mm 2 mps 757 mmHg 79%
    01:00 +1°C° 0 mm 2 mps 756 mmHg 78%
    02:00 +2°C° 0 mm 2 mps 755 mmHg 77%
    03:00 +2°C° 0 mm 2 mps 754 mmHg 75%
    04:00 +2°C° 0 mm 2 mps 754 mmHg 73%
    05:00 +2°C° 0 mm 2 mps 753 mmHg 74%
    06:00 +2°C° 0 mm 2 mps 753 mmHg 74%
    07:00 +2°C° 0 mm 2 mps 752 mmHg 74%
    08:00 +2°C° 0.3 mm 2 mps 751 mmHg 76%
    09:00 +2°C° 0.3 mm 2 mps 751 mmHg 78%
    10:00 +2°C° 0.3 mm 2 mps 750 mmHg 80%
    11:00 +2°C° 0.2 mm 2 mps 750 mmHg 78%
    12:00 +2°C° 0.2 mm 2 mps 749 mmHg 77%
    13:00 +3°C° 0.2 mm 2 mps 748 mmHg 75%
    14:00 +1°C° 0.4 mm 3 mps 747 mmHg 82%
    15:00 +1°C° 0.4 mm 3 mps 747 mmHg 88%
    16:00 +1°C° 0.4 mm 3 mps 746 mmHg 95%
    17:00 +2°C° 0.4 mm 3 mps 746 mmHg 94%
    18:00 +2°C° 0.4 mm 3 mps 746 mmHg 93%
    19:00 +3°C° 0.4 mm 4 mps 746 mmHg 93%
    20:00 +3°C° 0.3 mm 4 mps 746 mmHg 89%
    21:00 +3°C° 0.3 mm 4 mps 746 mmHg 85%
    22:00 +3°C° 0.3 mm 4 mps 746 mmHg 81%
    23:00 +3°C° 0 mm 4 mps 746 mmHg 83%

    12 December, Thursday

    Time Temperature Precipitation Wind Pressure Humidity
    00:00 +3°C° 0 mm 4 mps 746 mmHg 86%
    01:00 +3°C° 0 mm 3 mps 746 mmHg 88%
    02:00 +3°C° 0.1 mm 4 mps 745 mmHg 89%
    03:00 +3°C° 0.1 mm 4 mps 745 mmHg 90%
    04:00 +2°C° 0.1 mm 5 mps 745 mmHg 92%
    05:00 +1°C° 0.5 mm 5 mps 745 mmHg 90%
    06:00 +1°C° 0.5 mm 5 mps 746 mmHg 89%
    07:00 +1°C° 0.5 mm 5 mps 746 mmHg 87%
    08:00 +1°C° 0.1 mm 5 mps 746 mmHg 83%
    09:00 +1°C° 0.1 mm 6 mps 747 mmHg 79%
    10:00 +1°C° 0.1 mm 6 mps 748 mmHg 75%
    11:00 +2°C° 0 mm 6 mps 748 mmHg 73%
    12:00 +2°C° 0 mm 6 mps 748 mmHg 71%
    13:00 +3°C° 0 mm 6 mps 748 mmHg 70%
    14:00 +2°C° 0 mm 5 mps 747 mmHg 71%
    15:00 +2°C° 0 mm 5 mps 747 mmHg 72%
    16:00 +3°C° 0 mm 4 mps 746 mmHg 73%
    17:00 +3°C° 0 mm 4 mps 745 mmHg 73%
    18:00 +1°C° 0 mm 4 mps 743 mmHg 74%
    19:00 +1°C° 0 mm 4 mps 742 mmHg 75%
    20:00 +1°C° 0.1 mm 5 mps 740 mmHg 77%
    21:00 +1°C° 0.1 mm 6 mps 738 mmHg 79%
    22:00 +1°C° 0.1 mm 6 mps 736 mmHg 81%
    23:00 +2°C° 1.2 mm 6 mps 734 mmHg 84%

    13 December, Friday

    Time Temperature Precipitation Wind Pressure Humidity
    00:00 +2°C° 1.2 mm 7 mps 732 mmHg 87%
    01:00 +3°C° 1.2 mm 7 mps 730 mmHg 91%
    02:00 +3°C° 1.1 mm 6 mps 730 mmHg 88%
    03:00 +5°C° 1.1 mm 5 mps 729 mmHg 86%
    04:00 +5°C° 1.1 mm 5 mps 729 mmHg 83%
    05:00 +4°C° 1.1 mm 4 mps 728 mmHg 85%
    06:00 +4°C° 1.1 mm 4 mps 728 mmHg 86%
    07:00 +3°C° 1.1 mm 4 mps 728 mmHg 88%
    08:00 +2°C° 0.1 mm 5 mps 729 mmHg 83%
    09:00 +2°C° 0.1 mm 5 mps 729 mmHg 77%
    10:00 +2°C° 0.1 mm 6 mps 730 mmHg 72%
    11:00 +3°C° 0.1 mm 7 mps 730 mmHg 70%
    12:00 +3°C° 0.1 mm 7 mps 731 mmHg 69%
    13:00 +2°C° 0.1 mm 8 mps 731 mmHg 67%
    14:00 +2°C° 0 mm 8 mps 732 mmHg 71%
    15:00 +2°C° 0 mm 8 mps 732 mmHg 75%
    16:00 +2°C° 0 mm 8 mps 733 mmHg 78%
    17:00 +2°C° 0.2 mm 8 mps 734 mmHg 78%
    18:00 +3°C° 0.2 mm 7 mps 734 mmHg 78%
    19:00 +4°C° 0.2 mm 7 mps 735 mmHg 77%
    20:00 +3°C° 0.1 mm 7 mps 736 mmHg 79%
    21:00 +3°C° 0.1 mm 7 mps 736 mmHg 81%
    22:00 +3°C° 0.1 mm 7 mps 736 mmHg 83%
    23:00 +3°C° 0.2 mm 7 mps 736 mmHg 82%

    14 December, Saturday

    Time Temperature Precipitation Wind Pressure Humidity
    00:00 +3°C° 0.2 mm 6 mps 736 mmHg 80%
    01:00 +3°C° 0.2 mm 6 mps 736 mmHg 79%
    02:00 +3°C° 0.1 mm 6 mps 736 mmHg 80%
    03:00 +3°C° 0.1 mm 5 mps 736 mmHg 82%
    04:00 +3°C° 0.1 mm 5 mps 736 mmHg 83%
    05:00 +3°C° 0.4 mm 5 mps 737 mmHg 84%
    06:00 +3°C° 0.4 mm 5 mps 738 mmHg 84%
    07:00 +5°C° 0.4 mm 5 mps 738 mmHg 84%
    08:00 +5°C° 0.2 mm 5 mps 739 mmHg 82%
    09:00 +5°C° 0.2 mm 5 mps 741 mmHg 79%
    10:00 +5°C° 0.2 mm 5 mps 742 mmHg 76%
    11:00 +4°C° 0.1 mm 6 mps 743 mmHg 71%
    12:00 +5°C° 0.1 mm 6 mps 743 mmHg 65%
    13:00 +7°C° 0.1 mm 6 mps 744 mmHg 60%
    14:00 +6°C° 0 mm 5 mps 745 mmHg 64%
    15:00 +6°C° 0 mm 4 mps 745 mmHg 68%
    16:00 +7°C° 0 mm 3 mps 746 mmHg 72%
    17:00 +7°C° 0 mm 3 mps 746 mmHg 76%
    18:00 +7°C° 0 mm 3 mps 746 mmHg 80%
    19:00 +7°C° 0 mm 3 mps 746 mmHg 84%
    20:00 +7°C° 0 mm 3 mps 746 mmHg 85%
    21:00 +7°C° 0 mm 4 mps 746 mmHg 85%
    22:00 +7°C° 0 mm 4 mps 746 mmHg 86%
    23:00 +7°C° 0.4 mm 4 mps 746 mmHg 89%
    Show more